Location: Unspecified
(0.0000°N, 0.0000°E)
Time: 17:49:52
(UTC+00:00)

STARLINK 1023 - Pass Details

Date: 18 January 2020
Orbit: 346 x 354 km, 53.0° (Epoch: 18 January)

Event Time Altitude Azimuth Distance (km) Brightness Sun altitude
Exits shadow 04:16:56 - 177° (S) 1,840 6.6 -26.3°
Reaches altitude 10° 04:19:00 10° 150° (SSE) 1,295 6.2 -25.9°
Maximum altitude 04:20:13 12° 125° (SE) 1,185 6.3 -25.6°
Drops below altitude 10° 04:21:26 10° 100° (E) 1,293 6.5 -25.3°
Sets 04:24:21 0° 66° (ENE) 2,130 7.2 -24.6°
